Stations météo

réclame
Mon MeteoGroup
Dunkeswell Aerodrome, Grande-Bretagne (3840): Température de l'air & dewpoint: 17.09.2018 03:00:00 - 23.09.2018 03:00:00 (BST)Dunkeswell Aerodrome, Grande-Bretagne (3840): Température de l'air -20cm & Température de l'air -100cm: 17.09.2018 03:00:00 - 23.09.2018 03:00:00 (BST)Dunkeswell Aerodrome, Grande-Bretagne (3840): Vitesse du vent & gusts: 17.09.2018 03:00:00 - 23.09.2018 03:00:00 (BST)Dunkeswell Aerodrome, Grande-Bretagne (3840): Direction du vent: 17.09.2018 03:00:00 - 23.09.2018 03:00:00 (BST)Dunkeswell Aerodrome, Grande-Bretagne (3840): reduced air pressure: 17.09.2018 03:00:00 - 23.09.2018 03:00:00 (BST)Dunkeswell Aerodrome, Grande-Bretagne (3840): visibility: 17.09.2018 03:00:00 - 23.09.2018 03:00:00 (BST)Dunkeswell Aerodrome, Grande-Bretagne (3840): Quantités de précipitations: 17.09.2018 03:00:00 - 23.09.2018 03:00:00 (BST)
Date & Time tt [°C] td [°C] tt -20cm [°C] tt -100cm [°C] ff [km/h] ff [knt] fx [km/h] fx [knt] dd ppp [hPa] vv [km] rr [mm]
23.09.2018 03:00:00 9,6 9,6 - - 15 8 - - NE 1013,6 2,1 0,0
23.09.2018 02:00:00 9,8 9,8 - - 18 10 - - ENE 1013,5 4,3 0,2
23.09.2018 01:00:00 9,7 9,7 - - 16 9 - - NE 1013,4 2,7 0,2
23.09.2018 00:00:00 9,7 9,7 - - 18 10 - - ENE 1013,2 3,2 0,0
22.09.2018 23:00:00 9,6 9,6 - - 21 11 - - ENE 1012,8 2,8 0,4
22.09.2018 22:00:00 9,5 9,5 - - 24 13 - - ENE 1012,2 3,1 0,2
22.09.2018 21:00:00 9,4 9,3 - - 24 13 - - ENE 1011,8 5 0,0
22.09.2018 20:00:00 9,4 9,4 - - 28 15 - - ENE 1011,4 6 0,2
22.09.2018 19:00:00 9,6 9,5 - - 26 14 - - ENE 1010,8 5 0,6
22.09.2018 18:00:00 9,7 9,6 - - 24 13 - - E 1010,8 6 1,2
22.09.2018 17:00:00 10,3 10,2 - - 22 12 - - E 1011,4 3,2 3,2
22.09.2018 16:00:00 10,1 10,1 - - 18 10 - - E 1012,7 3,8 3,4
22.09.2018 15:00:00 9,8 9,7 - - 16 9 - - ESE 1013,8 5 1,8
22.09.2018 14:00:00 9,7 9,5 - - 22 12 - - ESE 1015,1 4,2 4,0
22.09.2018 13:00:00 8,8 8,7 - - 18 10 - - E 1017,0 4,8 3,2
22.09.2018 12:00:00 8,8 8,4 - - 15 8 - - E 1018,2 7 1,2
22.09.2018 11:00:00 8,9 7,6 - - 5 3 - - ESE 1019,7 5 0,8
22.09.2018 10:00:00 9,4 7,9 16,4 16,0 8 4 - - S 1019,7 9 0,6
22.09.2018 09:00:00 9,5 8,0 - - 9 5 - - SSW 1019,8 10 0,4
22.09.2018 08:00:00 9,8 7,2 - - 13 7 - - WSW 1020,0 25 0,0
22.09.2018 07:00:00 9,8 7,9 - - 11 6 - - SW 1020,1 16 0,0
22.09.2018 06:00:00 9,7 7,7 - - 13 7 - - SW 1019,9 19 0,0
22.09.2018 05:00:00 9,4 7,6 - - 13 7 - - SW 1019,9 18 0,0
22.09.2018 04:00:00 9,3 7,7 - - 11 6 - - SW 1020,2 16 0,0
22.09.2018 03:00:00 9,4 7,8 - - 11 6 - - SW 1020,3 15 0,0
22.09.2018 02:00:00 9,4 7,9 - - 15 8 - - SW 1020,1 12 0,0
22.09.2018 01:00:00 9,3 7,7 - - 15 8 - - SW 1020,3 16 0,0
22.09.2018 00:00:00 9,5 7,5 - - 13 7 - - SW 1020,2 16 0,0
21.09.2018 23:00:00 9,7 7,7 - - 15 8 - - WSW 1019,9 15 0,0
21.09.2018 22:00:00 10,2 7,8 - - 16 9 - - W 1019,4 17 0,0
21.09.2018 21:00:00 10,3 7,8 - - 13 7 - - W 1019,0 18 0,0
21.09.2018 20:00:00 10,4 7,4 - - 13 7 - - W 1018,4 20 0,0
21.09.2018 19:00:00 11,3 7,1 - - 18 10 - - W 1017,1 20 0,0
21.09.2018 18:00:00 12,6 6,2 - - 24 13 54 29 W 1016,2 30 0,0
21.09.2018 17:00:00 13,3 6,5 - - 26 14 52 28 W 1015,3 21 0,0
21.09.2018 16:00:00 14,0 7,2 - - 31 17 54 29 W 1014,5 15 0,0
21.09.2018 15:00:00 13,5 7,9 - - 24 13 59 32 W 1014,1 35 0,0
21.09.2018 14:00:00 14,5 6,6 - - 31 17 67 36 W 1013,1 21 0,0
21.09.2018 13:00:00 14,1 6,7 - - 31 17 57 31 W 1012,3 18 0,0
21.09.2018 12:00:00 12,6 5,9 - - 31 17 50 27 W 1012,0 15 0,0
21.09.2018 11:00:00 11,7 6,7 - - 28 15 52 28 W 1011,5 17 0,0
21.09.2018 10:00:00 10,9 7,1 16,7 16,0 21 11 - - W 1010,9 29 0,0
21.09.2018 09:00:00 9,4 6,6 - - 21 11 - - WSW 1010,0 40 0,0
21.09.2018 08:00:00 8,2 6,0 - - 18 10 - - W 1009,2 30 0,0
21.09.2018 07:00:00 7,7 6,5 - - 18 10 - - W 1008,3 30 0,2
21.09.2018 06:00:00 7,8 6,9 - - 15 8 - - W 1007,2 29 0,0
21.09.2018 05:00:00 8,5 7,6 - - 16 9 - - WNW 1006,0 30 0,0
21.09.2018 04:00:00 9,3 8,3 - - 24 13 - - WNW 1004,4 7 0,0
21.09.2018 03:00:00 10,1 8,7 - - 16 9 - - W 1003,0 30 0,0
21.09.2018 02:00:00 11,0 9,1 - - 24 13 52 28 W 1001,6 35 0,0
21.09.2018 01:00:00 11,9 9,8 - - 29 16 54 29 W 1000,8 27 0,0
21.09.2018 00:00:00 14,0 12,9 - - 28 15 59 32 W 999,5 21 1,8
20.09.2018 23:00:00 15,9 15,9 - - 37 20 76 41 SW 998,4 9 1,6
20.09.2018 22:00:00 16,0 16,0 - - 41 22 74 40 SSW 999,0 12 4,0
20.09.2018 21:00:00 15,9 15,8 - - 46 25 68 37 SSW 1000,5 3,6 0,6
20.09.2018 20:00:00 16,2 16,0 - - 37 20 61 33 SSW 1002,1 8 0,4
20.09.2018 19:00:00 16,4 16,0 - - 37 20 55 30 SSW 1003,2 9 0,2
20.09.2018 18:00:00 16,7 15,9 - - 35 19 55 30 SW 1004,4 10 0,0
20.09.2018 17:00:00 16,5 15,8 - - 31 17 61 33 SW 1005,9 8 0,0
20.09.2018 16:00:00 16,6 15,8 - - 29 16 61 33 SW 1006,7 12 0,0
20.09.2018 15:00:00 16,6 15,7 - - 37 20 57 31 SW 1007,4 9 0,0
20.09.2018 14:00:00 16,9 15,5 - - 37 20 59 32 SSW 1008,0 13 0,0
20.09.2018 13:00:00 16,7 15,6 - - 41 22 59 32 SSW 1008,6 12 0,0
20.09.2018 12:00:00 15,8 15,6 - - 35 19 55 30 SSW 1009,4 7 0,0
20.09.2018 11:00:00 15,6 15,5 - - 31 17 54 29 SSW 1010,2 4,5 0,0
20.09.2018 10:00:00 15,6 15,5 17,0 16,0 28 15 46 25 SSW 1010,6 5 0,0
20.09.2018 09:00:00 15,4 15,3 - - 24 13 - - SW 1010,9 6 0,0
20.09.2018 08:00:00 15,4 15,3 - - 21 11 - - SW 1010,9 5 0,2
20.09.2018 07:00:00 15,2 15,2 - - 22 12 - - SSW 1011,1 7 0,4
20.09.2018 06:00:00 15,2 15,1 - - 24 13 - - SW 1011,1 4,6 0,0
20.09.2018 05:00:00 15,2 15,0 - - 24 13 - - SSW 1011,3 8 0,2
20.09.2018 04:00:00 15,3 15,1 - - 26 14 - - SSW 1011,8 9 0,0
20.09.2018 03:00:00 15,2 15,2 - - 22 12 - - SSW 1012,0 6 0,0
20.09.2018 02:00:00 14,9 14,9 - - 24 13 - - SSW 1012,5 8 0,2
20.09.2018 01:00:00 13,5 13,5 - - 15 8 - - SSW 1013,2 3,3 0,2
20.09.2018 00:00:00 13,3 13,2 - - 16 9 - - SSW 1013,9 14 0,8
19.09.2018 23:00:00 13,4 13,3 - - 15 8 - - SSW 1014,4 2,5 1,4
19.09.2018 22:00:00 13,4 13,1 - - 9 5 - - SW 1014,8 2,5 0,0
19.09.2018 21:00:00 13,5 13,1 - - 15 8 - - SW 1014,6 3,0 0,2
19.09.2018 20:00:00 13,4 13,0 - - 13 7 - - SW 1014,3 7 0,4
19.09.2018 19:00:00 13,7 13,1 - - 16 9 - - W 1014,3 7 0,4
19.09.2018 18:00:00 15,0 14,7 - - 13 7 - - W 1013,7 7 1,2
19.09.2018 17:00:00 16,3 15,0 - - 28 15 - - SW 1012,8 4,7 0,2
19.09.2018 16:00:00 17,4 14,8 - - 29 16 52 28 SW 1012,1 13 0,0
19.09.2018 15:00:00 17,2 14,7 - - 26 14 50 27 SW 1012,0 9 0,0
19.09.2018 14:00:00 18,3 14,1 - - 29 16 57 31 SW 1011,7 19 0,0
19.09.2018 13:00:00 19,7 12,5 - - 34 18 55 30 SW 1011,3 - 0,0
19.09.2018 12:00:00 19,3 14,2 - - - - 61 33 - 1010,9 12 0,0
19.09.2018 11:00:00 17,7 14,2 - - 29 16 54 29 SW 1011,0 14 0,0
19.09.2018 10:00:00 16,6 14,1 17,0 16,2 29 16 55 30 SW 1010,8 13 0,0
19.09.2018 09:00:00 16,4 14,5 - - 34 18 50 27 SSW 1010,5 14 0,0
19.09.2018 08:00:00 15,7 14,6 - - 29 16 50 27 SSW 1010,6 11 0,0
19.09.2018 07:00:00 15,0 13,9 - - 28 15 50 27 SSW 1010,7 11 0,0
19.09.2018 06:00:00 14,8 14,3 - - 28 15 - - SW 1010,4 10 0,0
19.09.2018 05:00:00 14,6 13,9 - - 28 15 46 25 SSW 1010,7 9 0,0
19.09.2018 04:00:00 14,6 14,2 - - 21 11 - - SW 1011,0 8 0,0
19.09.2018 03:00:00 14,9 14,6 - - 21 11 - - SW 1011,4 8 0,0
19.09.2018 02:00:00 15,3 15,1 - - 18 10 - - SW 1011,6 7 0,0
19.09.2018 01:00:00 15,2 15,1 - - 9 5 - - SSW 1011,5 6 1,6
19.09.2018 00:00:00 15,5 14,6 - - 28 15 - - SW 1011,2 6 0,0
18.09.2018 23:00:00 15,9 14,7 - - 24 13 - - SSW 1011,0 11 0,0
18.09.2018 22:00:00 15,9 14,5 - - 24 13 - - SSW 1011,5 12 0,0
18.09.2018 21:00:00 15,9 14,5 - - 26 14 - - SSW 1011,5 13 0,0
18.09.2018 20:00:00 15,8 14,7 - - 26 14 - - SW 1011,4 11 0,2
18.09.2018 19:00:00 16,2 14,5 - - 26 14 - - SSW 1011,3 12 0,0
18.09.2018 18:00:00 16,8 14,6 - - 22 12 - - SW 1011,1 13 0,0
18.09.2018 17:00:00 17,3 14,2 - - 26 14 - - SW 1010,8 16 0,0
18.09.2018 16:00:00 17,4 14,5 - - 26 14 - - SW 1010,8 13 0,0
18.09.2018 15:00:00 17,3 14,4 - - 26 14 - - SW 1010,7 15 0,0
18.09.2018 14:00:00 16,7 14,5 - - 22 12 - - SW 1010,4 15 0,0
18.09.2018 13:00:00 17,0 14,3 - - 26 14 46 25 SW 1010,0 12 0,0
18.09.2018 12:00:00 16,9 13,6 - - 26 14 - - SW 1009,7 21 0,0
18.09.2018 11:00:00 16,2 13,1 - - 21 11 - - SW 1009,1 25 0,0
18.09.2018 10:00:00 14,8 12,7 17,0 16,2 22 12 - - WSW 1008,6 20 0,0
18.09.2018 09:00:00 14,4 12,0 - - 28 15 - - WSW 1007,8 22 0,0
18.09.2018 08:00:00 14,2 12,7 - - 26 14 55 30 WSW 1006,5 15 0,0
18.09.2018 07:00:00 14,6 14,3 - - 28 15 55 30 WSW 1005,1 2,5 0,0
18.09.2018 06:00:00 15,3 15,0 - - 29 16 57 31 SW 1003,8 28 0,0
18.09.2018 05:00:00 15,4 15,2 - - 35 19 59 32 SSW 1003,2 18 0,0
18.09.2018 04:00:00 15,5 15,3 - - 34 18 70 38 SSW 1003,0 15 0,0
18.09.2018 03:00:00 15,9 15,7 - - 35 19 65 35 SSW 1003,0 5 0,2
18.09.2018 02:00:00 15,8 15,7 - - 35 19 59 32 S 1003,2 2,5 0,2
18.09.2018 01:00:00 16,1 16,0 - - 35 19 52 28 SSW 1003,9 5 0,0
18.09.2018 00:00:00 16,1 15,6 - - 35 19 59 32 S 1004,8 4,8 0,0
17.09.2018 23:00:00 15,5 14,8 - - 28 15 - - S 1005,8 12 0,0
17.09.2018 22:00:00 15,3 14,1 - - 22 12 - - S 1006,7 17 0,0
17.09.2018 21:00:00 14,2 12,8 - - 16 9 - - S 1007,6 16 0,0
17.09.2018 20:00:00 14,3 12,5 - - 18 10 - - S 1008,2 21 0,0
17.09.2018 19:00:00 15,1 13,0 - - 21 11 - - S 1008,3 30 0,0
17.09.2018 18:00:00 16,0 13,9 - - 24 13 - - S 1009,2 45 0,0
17.09.2018 17:00:00 16,7 14,3 - - 22 12 - - S 1009,6 22 0,0
17.09.2018 16:00:00 16,5 14,5 - - 26 14 - - S 1010,9 40 0,0
17.09.2018 15:00:00 16,7 15,5 - - 28 15 - - S 1011,9 24 0,0
17.09.2018 14:00:00 15,9 15,7 - - 22 12 - - S 1012,8 3,7 0,0
17.09.2018 13:00:00 16,3 16,2 - - 26 14 - - S 1013,3 10 0,0
17.09.2018 12:00:00 15,9 15,9 - - 28 15 - - S 1014,0 5 0,0
17.09.2018 11:00:00 15,8 15,8 - - 28 15 - - SSW 1014,7 0,2 0,2
17.09.2018 10:00:00 15,7 15,7 16,9 16,2 22 12 - - S 1015,1 0,1 0,0
17.09.2018 09:00:00 15,6 15,6 - - 21 11 - - S 1015,2 0,1 0,0
17.09.2018 08:00:00 15,6 15,5 - - 21 11 - - S 1015,3 0,1 0,2
17.09.2018 07:00:00 15,6 15,5 - - 18 10 - - S 1015,1 - 0,0
17.09.2018 06:00:00 15,7 15,7 - - 22 12 - - SSW 1015,3 0,1 0,0
17.09.2018 05:00:00 15,9 15,9 - - 18 10 - - SSW 1015,7 0,2 0,0
17.09.2018 04:00:00 16,0 16,0 - - 18 10 - - SW 1016,0 1,1 0,0
17.09.2018 03:00:00 16,1 16,1 - - 16 9 - - SW 1016,2 1,5 0,0

tt = Température de l'air
td = dewpoint
tt -20cm = Température de l'air -20cm
tt -100cm = Température de l'air -100cm
ff = Vitesse du vent
fx = gusts
dd = Direction du vent
ppp = reduced air pressure
vv = visibility
rr = Quantités de précipitations

stations d'obs. à proximité